• In Österreich
  • Länderverzeichnis
  • Für 7 Tage
  • Wassertemperatur
  • Satellitenkarten
  • Wetterkarte
  • News
  • Widgets
  • user-avatar
    Anmelden

    Stündliche Wetter Myślenice

    Heute, 23 Februar, Freitag

    Zeit Temperatur Niederschläge Wind Luftdruck Luftfeuchtigkeit
    00:00 -6°C° 0 mm 3 m/S 736 mmHg 90%
    01:00 -7°C° 0 mm 3 m/S 736 mmHg 91%
    02:00 -6°C° 0 mm 3 m/S 736 mmHg 91%
    03:00 -6°C° 0 mm 3 m/S 736 mmHg 91%
    04:00 -6°C° 0 mm 3 m/S 735 mmHg 91%
    05:00 -6°C° 0 mm 3 m/S 735 mmHg 91%
    06:00 -6°C° 0 mm 3 m/S 736 mmHg 90%
    07:00 -6°C° 0 mm 3 m/S 736 mmHg 90%
    08:00 -6°C° 0 mm 3 m/S 736 mmHg 88%
    09:00 -5°C° 0 mm 3 m/S 736 mmHg 85%
    10:00 -4°C° 0 mm 3 m/S 736 mmHg 82%
    11:00 -4°C° 0 mm 3 m/S 736 mmHg 81%
    12:00 -4°C° 0 mm 3 m/S 736 mmHg 79%
    13:00 -2°C° 0 mm 3 m/S 736 mmHg 77%
    14:00 -4°C° 0 mm 3 m/S 736 mmHg 77%
    15:00 -4°C° 0 mm 3 m/S 736 mmHg 78%
    16:00 -4°C° 0 mm 3 m/S 736 mmHg 78%
    17:00 -5°C° 0 mm 3 m/S 736 mmHg 79%
    18:00 -5°C° 0 mm 3 m/S 736 mmHg 81%
    19:00 -5°C° 0 mm 2 m/S 736 mmHg 82%
    20:00 -5°C° 0 mm 2 m/S 737 mmHg 83%
    21:00 -6°C° 0 mm 2 m/S 737 mmHg 83%
    22:00 -6°C° 0 mm 2 m/S 737 mmHg 84%
    23:00 -6°C° 0 mm 1 m/S 737 mmHg 84%

    Morgen, 24 Februar, Samstag

    Zeit Temperatur Niederschläge Wind Luftdruck Luftfeuchtigkeit
    00:00 -6°C° 0 mm 1 m/S 737 mmHg 85%
    01:00 -6°C° 0 mm 1 m/S 737 mmHg 85%
    02:00 -7°C° 0 mm 1 m/S 737 mmHg 85%
    03:00 -7°C° 0 mm 1 m/S 736 mmHg 85%
    04:00 -7°C° 0 mm 1 m/S 736 mmHg 85%
    05:00 -7°C° 0 mm 1 m/S 736 mmHg 84%
    06:00 -7°C° 0 mm 1 m/S 736 mmHg 84%
    07:00 -8°C° 0 mm 2 m/S 736 mmHg 83%
    08:00 -8°C° 0 mm 2 m/S 736 mmHg 79%
    09:00 -8°C° 0 mm 3 m/S 736 mmHg 76%
    10:00 -7°C° 0 mm 3 m/S 737 mmHg 72%
    11:00 -7°C° 0,1 mm 4 m/S 737 mmHg 70%
    12:00 -7°C° 0,1 mm 4 m/S 737 mmHg 67%
    13:00 -7°C° 0,1 mm 5 m/S 737 mmHg 65%
    14:00 -7°C° 0,1 mm 5 m/S 737 mmHg 65%
    15:00 -8°C° 0,1 mm 5 m/S 737 mmHg 66%
    16:00 -9°C° 0,1 mm 6 m/S 737 mmHg 66%
    17:00 -10°C° 0 mm 5 m/S 738 mmHg 68%
    18:00 -10°C° 0 mm 4 m/S 739 mmHg 70%
    19:00 -11°C° 0 mm 4 m/S 739 mmHg 71%
    20:00 -12°C° 0 mm 4 m/S 739 mmHg 73%
    21:00 -12°C° 0 mm 4 m/S 740 mmHg 75%
    22:00 -12°C° 0 mm 4 m/S 740 mmHg 77%
    23:00 -12°C° 0 mm 3 m/S 740 mmHg 78%

    übermorgen, 25 Februar, Sonntag

    Zeit Temperatur Niederschläge Wind Luftdruck Luftfeuchtigkeit
    00:00 -13°C° 0 mm 3 m/S 740 mmHg 79%
    01:00 -13°C° 0 mm 3 m/S 740 mmHg 80%
    02:00 -13°C° 0 mm 3 m/S 740 mmHg 81%
    03:00 -13°C° 0 mm 3 m/S 740 mmHg 81%
    04:00 -13°C° 0 mm 2 m/S 740 mmHg 82%
    05:00 -13°C° 0 mm 2 m/S 740 mmHg 82%
    06:00 -13°C° 0 mm 2 m/S 740 mmHg 83%
    07:00 -13°C° 0 mm 2 m/S 741 mmHg 83%
    08:00 -13°C° 0 mm 2 m/S 741 mmHg 78%
    09:00 -12°C° 0 mm 2 m/S 741 mmHg 74%
    10:00 -10°C° 0 mm 2 m/S 741 mmHg 70%
    11:00 -10°C° 0 mm 2 m/S 740 mmHg 68%
    12:00 -9°C° 0 mm 2 m/S 740 mmHg 67%
    13:00 -9°C° 0 mm 2 m/S 740 mmHg 66%
    14:00 -10°C° 0 mm 3 m/S 740 mmHg 67%
    15:00 -10°C° 0 mm 3 m/S 740 mmHg 68%
    16:00 -10°C° 0 mm 3 m/S 739 mmHg 69%
    17:00 -12°C° 0 mm 3 m/S 740 mmHg 72%
    18:00 -10°C° 0 mm 2 m/S 740 mmHg 76%
    19:00 -12°C° 0 mm 2 m/S 740 mmHg 79%
    20:00 -12°C° 0 mm 2 m/S 740 mmHg 80%
    21:00 -12°C° 0 mm 2 m/S 740 mmHg 81%
    22:00 -13°C° 0 mm 2 m/S 740 mmHg 83%
    23:00 -13°C° 0 mm 2 m/S 740 mmHg 84%

    26 Februar, Montag

    Zeit Temperatur Niederschläge Wind Luftdruck Luftfeuchtigkeit
    00:00 -13°C° 0 mm 2 m/S 740 mmHg 84%
    01:00 -13°C° 0 mm 2 m/S 739 mmHg 85%
    02:00 -14°C° 0 mm 2 m/S 739 mmHg 86%
    03:00 -14°C° 0 mm 2 m/S 739 mmHg 86%
    04:00 -14°C° 0 mm 2 m/S 739 mmHg 87%
    05:00 -14°C° 0 mm 2 m/S 739 mmHg 86%
    06:00 -15°C° 0 mm 2 m/S 739 mmHg 86%
    07:00 -15°C° 0 mm 2 m/S 738 mmHg 86%
    08:00 -15°C° 0 mm 3 m/S 738 mmHg 81%
    09:00 -14°C° 0 mm 3 m/S 738 mmHg 77%
    10:00 -14°C° 0 mm 4 m/S 738 mmHg 72%
    11:00 -14°C° 0 mm 4 m/S 737 mmHg 70%
    12:00 -12°C° 0 mm 4 m/S 737 mmHg 69%
    13:00 -12°C° 0 mm 4 m/S 737 mmHg 67%
    14:00 -12°C° 0 mm 4 m/S 736 mmHg 68%
    15:00 -12°C° 0 mm 4 m/S 736 mmHg 69%
    16:00 -12°C° 0 mm 4 m/S 736 mmHg 70%
    17:00 -14°C° 0 mm 4 m/S 736 mmHg 72%
    18:00 -14°C° 0 mm 4 m/S 735 mmHg 75%
    19:00 -15°C° 0 mm 4 m/S 735 mmHg 78%
    20:00 -15°C° 0 mm 4 m/S 735 mmHg 79%
    21:00 -15°C° 0 mm 4 m/S 735 mmHg 80%
    22:00 -16°C° 0 mm 4 m/S 735 mmHg 81%
    23:00 -16°C° 0 mm 4 m/S 734 mmHg 82%

    27 Februar, Dienstag

    Zeit Temperatur Niederschläge Wind Luftdruck Luftfeuchtigkeit
    00:00 -16°C° 0 mm 4 m/S 734 mmHg 82%
    01:00 -16°C° 0 mm 4 m/S 734 mmHg 83%
    02:00 -17°C° 0 mm 4 m/S 733 mmHg 83%
    03:00 -17°C° 0 mm 4 m/S 733 mmHg 83%
    04:00 -17°C° 0 mm 4 m/S 733 mmHg 82%
    05:00 -17°C° 0 mm 4 m/S 733 mmHg 83%
    06:00 -17°C° 0 mm 4 m/S 732 mmHg 83%
    07:00 -17°C° 0 mm 4 m/S 732 mmHg 83%
    08:00 -17°C° 0,1 mm 4 m/S 732 mmHg 81%
    09:00 -16°C° 0,1 mm 4 m/S 732 mmHg 80%
    10:00 -15°C° 0,1 mm 4 m/S 732 mmHg 79%
    11:00 -15°C° 0,1 mm 4 m/S 732 mmHg 78%
    12:00 -14°C° 0,1 mm 4 m/S 731 mmHg 78%
    13:00 -14°C° 0,1 mm 4 m/S 731 mmHg 77%
    14:00 -14°C° 0,1 mm 4 m/S 731 mmHg 79%
    15:00 -14°C° 0,1 mm 4 m/S 731 mmHg 81%
    16:00 -14°C° 0,1 mm 4 m/S 731 mmHg 82%
    17:00 -13°C° 0,1 mm 3 m/S 731 mmHg 84%
    18:00 -13°C° 0,1 mm 3 m/S 731 mmHg 87%
    19:00 -13°C° 0,1 mm 3 m/S 731 mmHg 89%
    20:00 -14°C° 0,1 mm 3 m/S 731 mmHg 89%
    21:00 -14°C° 0,1 mm 3 m/S 732 mmHg 90%
    22:00 -14°C° 0,1 mm 3 m/S 732 mmHg 90%
    23:00 -14°C° 0,1 mm 3 m/S 732 mmHg 90%

    28 Februar, Mittwoch

    Zeit Temperatur Niederschläge Wind Luftdruck Luftfeuchtigkeit
    00:00 -14°C° 0,1 mm 3 m/S 732 mmHg 90%
    01:00 -13°C° 0,1 mm 2 m/S 732 mmHg 90%
    02:00 -13°C° 0,1 mm 2 m/S 732 mmHg 91%
    03:00 -14°C° 0,1 mm 2 m/S 731 mmHg 91%
    04:00 -14°C° 0,1 mm 2 m/S 731 mmHg 91%
    05:00 -14°C° 0,1 mm 2 m/S 731 mmHg 91%
    06:00 -14°C° 0,1 mm 2 m/S 731 mmHg 91%
    07:00 -12°C° 0,1 mm 1 m/S 732 mmHg 91%
    08:00 -13°C° 0,1 mm 2 m/S 732 mmHg 87%
    09:00 -12°C° 0,1 mm 2 m/S 732 mmHg 82%
    10:00 -12°C° 0,1 mm 2 m/S 732 mmHg 77%
    11:00 -10°C° 0,1 mm 2 m/S 732 mmHg 76%
    12:00 -10°C° 0,1 mm 2 m/S 732 mmHg 74%
    13:00 -9°C° 0,1 mm 2 m/S 731 mmHg 73%
    14:00 -9°C° 0,1 mm 2 m/S 731 mmHg 74%
    15:00 -9°C° 0,1 mm 2 m/S 731 mmHg 75%
    16:00 -9°C° 0,1 mm 2 m/S 731 mmHg 76%
    17:00 -9°C° 0,1 mm 1 m/S 731 mmHg 80%
    18:00 -10°C° 0,1 mm 1 m/S 732 mmHg 85%
    19:00 -11°C° 0,1 mm 1 m/S 732 mmHg 89%
    20:00 -11°C° 0 mm 1 m/S 732 mmHg 90%
    21:00 -11°C° 0 mm 1 m/S 732 mmHg 90%
    22:00 -12°C° 0 mm 1 m/S 732 mmHg 91%
    23:00 -12°C° 0 mm 1 m/S 732 mmHg 91%
    Mehr zeigen